Regional Weather Roundup
Issued by NWS

Home | Current Version | Previous Version | Graphics & Text | Print | Product List | Glossary On
Versions: 1 2 3 4 5 6 7 8 9 10 11 12 13 14 15 16 17 18 19 20 21 22 23 24 25 26 27 28 29 30 31 32 33 34 35 36 37 38 39 40 41 42 43 44 45 46 47 48 49 50
000
ASUS43 KBIS 280420
RWRND

NORTH DAKOTA REGIONAL WEATHER ROUNDUP
NATIONAL WEATHER SERVICE BISMARCK ND
1100 PM CDT FRI MAR 27 2015

NOTE: "FAIR" INDICATES FEW OR NO CLOUDS BELOW 12,000 FEET WITH NO
SIGNIFICANT WEATHER AND/OR OBSTRUCTIONS TO VISIBILITY.


NDZ001>003-009>011-017-280500-
NORTHWEST NORTH DAKOTA

CITY           SKY/WX    TMP DP  RH WIND       PRES   REMARKS
WILLISTON      PTCLDY    46  38  73 NE8       29.92R
MINOT          CLOUDY    34  30  85 E6        29.95S
MINOT AFB      CLOUDY    34  34  99 E6        29.96R
$$

NDZ018>021-031>035-040>046-280500-
SOUTHWEST NORTH DAKOTA

CITY           SKY/WX    TMP DP  RH WIND       PRES   REMARKS
BISMARCK       CLOUDY    34  30  85 NE8       29.95R
DICKINSON      CLEAR     38  31  76 S6        29.91R
GARRISON         N/A     39  33  79 E3        29.94R
HETTINGER ARPT MOCLDY    42  32  67 SE5       29.95R
$$

NDZ004>008-012>016-024-026-027-054-280500-
NORTHEAST NORTH DAKOTA

CITY           SKY/WX    TMP DP  RH WIND       PRES   REMARKS
GRAND FORKS    CLOUDY    30  23  75 S8        30.11R
GRND FRKS AFB  CLOUDY    29  24  81 S8        30.10R
DEVILS LAKE    CLOUDY    28  27  93 SE15      30.03S WCI  17
$$

NDZ022-023-025-028>030-036>039-047>053-280500-
SOUTHEAST NORTH DAKOTA

CITY           SKY/WX    TMP DP  RH WIND       PRES   REMARKS
FARGO          CLOUDY    31  22  69 S8        30.12R
JAMESTOWN      CLOUDY    30  28  92 SE12      30.02R FOG
$$




USA.gov is the U.S. government's official web portal to all federal, state and local government web resources and services.